Home   Weather   Chattanooga   Past weeks
Flag for USA

Past Weather in Chattanooga, Tennessee, USA — Yesterday and Last 2 Weeks

Now
87 °F

Scattered clouds.


Feels Like: 90 °F
Forecast: 93 / 69 °F
Wind: 7 mph from Northwest

Location: Lovell Field

Current Time: May 25, 2019 at 1:16:55 pm

Latest Report: May 25, 2019 at 11:53 am


Visibility: 10 mi

Pressure: 30.16 "Hg

Humidity: 51%

Dew Point: 67 °F

Location of ChattanoogaLocation

Past Weather in Chattanooga — Graph

°F

Chattanooga Temperature Yesterday

Maximum temperature yesterday: 93 °F (at 4:53 pm)
Minimum temperature yesterday: 70 °F (at 4:53 am)
Average temperature yesterday: 81 °F

High & Low Weather Summary for the Past Weeks

 TemperatureHumidityPressure
High93 °F (May 24, 4:53 pm)100% (May 11, 3:21 am)30.24 "Hg (May 11, 3:21 am)
Low50 °F (May 14, 6:53 am)28% (May 20, 5:53 pm)29.71 "Hg (May 12, 4:53 am)
Average73 °F70%29.98 "Hg
* Reported May 10 11:15 am — May 25 11:53 am, Chattanooga. Weather by CustomWeather, © 2019

Note: Actual official high and low records may vary slightly from our data, if they occured in-between our weather recording intervals... More about our weather records

Advertising

Chattanooga Weather History for the Previous 24 Hours

Scroll right to see more
 ConditionsComfort  
Time TempWeatherWind HumidityBarometerVisibility
11:53 am
Sat, May 25
87 °FScattered clouds.7 mph51%30.16 "Hg10 mi
10:53 am86 °FSunny.3 mph55%30.17 "Hg10 mi
9:53 am84 °FSunny.6 mph61%30.17 "Hg10 mi
8:53 am78 °FSunny.No wind76%30.16 "Hg10 mi
7:53 am73 °FSunny.No wind90%30.14 "Hg10 mi
6:53 am72 °FPassing clouds.No wind91%30.13 "Hg10 mi
5:53 am72 °FPassing clouds.No wind93%30.12 "Hg10 mi
4:53 am73 °FClear.No wind90%30.11 "Hg10 mi
3:53 am73 °FPassing clouds.No wind90%30.10 "Hg10 mi
2:53 am73 °FClear.No wind90%30.09 "Hg10 mi
1:53 am74 °FClear.No wind88%30.07 "Hg10 mi
12:53 am77 °FClear.No wind82%30.07 "Hg10 mi
11:53 pm
Fri, May 24
77 °FPassing clouds.No wind79%30.07 "Hg10 mi
10:53 pm80 °FPassing clouds.No wind71%30.08 "Hg10 mi
9:53 pm83 °FPassing clouds.No wind63%30.07 "Hg10 mi
8:53 pm86 °FPassing clouds.3 mph51%30.07 "Hg10 mi
7:53 pm89 °FScattered clouds.5 mph48%30.08 "Hg10 mi
6:53 pm91 °FScattered clouds.6 mph44%30.08 "Hg10 mi
5:53 pm92 °FScattered clouds.8 mph43%30.09 "Hg10 mi
4:53 pm93 °FBroken clouds.6 mph42%30.10 "Hg10 mi
3:53 pm90 °FBroken clouds.No wind41%30.11 "Hg10 mi
2:53 pm91 °FBroken clouds.5 mph44%30.14 "Hg10 mi
1:53 pm89 °FBroken clouds.9 mph48%30.15 "Hg10 mi
Weather by CustomWeather, © 2019

See weather overview